Home   Weather   Canton   Past weeks

Flag for USA Past Weather in Canton, Ohio, USA — Yesterday and Last 2 Weeks

Now
58 °F

Fog.


Feels Like: 58 °F
Forecast: 59 / 67 °F
Wind: 5 mph from Northwest

Location: Akron-Canton Regional Airport

Current Time: Sep 29, 2016 at 8:05:01 AM

Latest Report: Sep 29, 2016 at 6:51 AM


Visibility: 4 mi

Pressure: 30.04 "Hg

Humidity: 93%

Dew Point: 56 °F

Location of CantonLocation

Past Weather in Canton — Graph

°F

Canton Temperature Yesterday

Maximum temperature yesterday: 71 °F (at 12:51 PM)
Minimum temperature yesterday: 53 °F (at 4:51 AM)
Average temperature yesterday: 59 °F

High & Low Weather Summary for the Past Weeks

 TemperatureHumidityPressure
High87 °F (Sep 23, 3:51 PM)97% (Sep 19, 5:51 AM)30.28 "Hg (Sep 19, 5:51 AM)
Low47 °F (Sep 25, 4:51 AM)29% (Sep 20, 3:51 PM)29.81 "Hg (Sep 27, 4:51 PM)
Average67 °F70%30.07 "Hg
* Reported Sep 14 6:51 AM — Sep 29 6:51 AM, Canton, Weather by CustomWeather, © 2016

Note: Actual official high and low records may vary slightly from our data, if they occured in-between our weather recording intervals... More about our weather records

Advertising

Canton Weather History for the Previous 24 Hours

Scroll right to see more
 ConditionsComfort  
Time TempWeatherWind HumidityBarometerVisibility
6:51 AM
Thu, Sep 29
58 °FFog.5 mph93%30.04 "Hg4 mi
5:51 AM58 °FOvercast.8 mph90%30.00 "Hg7 mi
4:51 AM57 °FOvercast.12 mph90%30.00 "Hg8 mi
3:51 AM56 °FOvercast.7 mph90%30.00 "Hg9 mi
2:51 AM56 °FOvercast.6 mph90%29.98 "Hg10 mi
1:51 AM56 °FOvercast.6 mph90%30.00 "Hg7 mi
12:51 AM56 °FLight rain. Fog.5 mph90%29.99 "Hg6 mi
11:51 PM
Wed, Sep 28
57 °FOvercast.6 mph90%29.99 "Hg7 mi
10:51 PM57 °FMostly cloudy.7 mph87%29.98 "Hg10 mi
9:51 PM56 °FLight rain. Passing clouds.6 mph90%29.98 "Hg7 mi
8:51 PM57 °FRain. Fog.6 mph90%29.98 "Hg4 mi
7:51 PM58 °FLight rain. Overcast.9 mph87%29.93 "Hg10 mi
6:51 PM59 °FLight rain. Overcast.9 mph87%29.93 "Hg8 mi
5:51 PM60 °FLight rain. Mostly cloudy.7 mph80%29.94 "Hg9 mi
4:51 PM61 °FLight rain. Mostly cloudy.7 mph72%29.93 "Hg10 mi
3:51 PM63 °FMostly cloudy.9 mph65%29.91 "Hg10 mi
2:51 PM65 °FPartly sunny.12 mph56%29.90 "Hg10 mi
1:51 PM70 °FBroken clouds.9 mph39%29.90 "Hg10 mi
12:51 PM71 °FBroken clouds.13 mph38%29.90 "Hg10 mi
11:51 AM66 °FBroken clouds.9 mph50%29.91 "Hg10 mi
10:51 AM61 °FPartly sunny.10 mph56%29.93 "Hg10 mi
9:51 AM58 °FPartly sunny.9 mph58%29.92 "Hg10 mi
8:51 AM56 °FBroken clouds.8 mph62%29.91 "Hg10 mi
Weather by CustomWeather, © 2016

See weather overviewHow to use our weather pages